Regional Weather Roundup
Issued by NWS

Home | Current Version | Previous Version | Text Only | Print | Product List | Glossary Off
Versions: 1 2 3 4 5 6 7 8 9 10 11 12 13 14 15 16 17 18 19 20 21 22 23 24 25 26 27 28

000
ASUS45 KTFX 202010
RWRMT
MONTANA REGIONAL WEATHER ROUNDUP
NATIONAL WEATHER SERVICE GREAT FALLS MT
200 PM MDT SUN MAY 20 2018

NOTE: "FAIR" INDICATES FEW OR NO CLOUDS BELOW 12000 FEET WITH NO
SIGNIFICANT WEATHER AND/OR OBSTRUCTIONS TO VISIBILITY.

MTZ001>007-043-202100-
WEST OF THE DIVIDE

CITY           SKY/WX    TMP DP  RH WIND       PRES   REMARKS
KALISPELL      FAIR      69  45  41 S8        29.91F
MISSOULA       FAIR      71  47  42 VRB5      29.90F
BUTTE          CLOUDY    65  37  35 SE9       30.00F
MULLAN PASS    PTSUNNY   57  40  52 CALM      30.02F
ANACONDA         N/A     66  37  34 MISG      29.97S
DEER LODGE       N/A     66  48  52 NW8       29.98S
HAMILTON         N/A     64  48  55 MISG      29.92F
PLAINS           N/A     72  52  49 CALM      29.91F
RONAN            N/A     68  48  49 W6        29.94F
$$

MTZ008-052>055-202100-
SOUTHWEST MONTANA

CITY           SKY/WX    TMP DP  RH WIND       PRES   REMARKS
BOZEMAN        FAIR      68  47  46 VRB3      29.97F
DILLON         FAIR      67  45  45 N7        29.96F
ENNIS          PTSUNNY   66  45  45 NE9       30.02F
W YELLOWSTONE  PTSUNNY   57  36  44 SW18      30.05F
$$

MTZ009-010-012-014-046-048-049-054-202100-
EAST SLOPES AND CENTRAL MONTANA

CITY           SKY/WX    TMP DP  RH WIND       PRES   REMARKS
CUT BANK       FAIR      71  43  36 S15       29.91F
GREAT FALLS    FAIR      74  44  34 S6        29.93F
MALMSTROM AFB  FAIR      71  47  43 S3        29.93F
HELENA         FAIR      68  51  54 VRB7      29.96F
AUGUSTA        FAIR      67  46  45 S13       29.95F
BOWMANS CRNR   FAIR      65  46  50 SE13      29.94F
CHOTEAU          N/A     70  46  43 S9G15     29.95F
RAYNESFORD     FAIR      70  44  38 NE13      29.95F
ULM            FAIR      71  46  40 S6        29.93F
WHITE SULPHUR    N/A     66  41  39 S6G12     29.99F
$$

MTZ011-013-016-021-045-047-050-051-202100-
NORTH CENTRAL MONTANA

CITY           SKY/WX    TMP DP  RH WIND       PRES   REMARKS
HAVRE          FAIR      72  45  37 SE6       29.92F
LEWISTOWN      FAIR      71  42  35 MISG      29.97F
N BAR RANCH    FAIR      63  48  59 S15G21    30.05S
CHINOOK          N/A     73  43  33 MISG      29.92F
GEYSER         FAIR      71  36  27 E8G16     29.95F
JUDITH GAP     FAIR      59  51  76 S9        30.04F
ROY            FAIR      69  52  55 S21G29    29.96F
STANFORD       FAIR      70  40  34 SE15G22   29.97F
$$

MTZ017>020-022>027-061-062-202100-
NORTHEAST MONTANA

CITY           SKY/WX    TMP DP  RH WIND       PRES   REMARKS
GLASGOW        FAIR      70  38  31 SE26G35   30.03F
GLENDIVE       FAIR      67  37  33 SE17G25   30.11F
JORDAN           N/A     68  44  42 S14G23    30.03F
MALTA          SUNNY     73  46  38 S15G26    29.96F
SIDNEY         FAIR      68  36  30 SE21G29   30.12F
WOLF POINT     FAIR      71  40  32 SE12G17   30.08F
PLENTYWOOD       N/A     68  28  22 MISG      30.11F
POPLAR           N/A     68  34  28 MISG      30.09F
SCOBEY           N/A     68  32  26 SE8       30.07F
$$

MTZ028>42-056>058-202100-
SOUTHCENTRAL AND SOUTHEAST MONTANA

CITY           SKY/WX    TMP DP  RH WIND       PRES   REMARKS
BAKER          FAIR      65  38  36 S20G31    30.15F
BILLINGS       FAIR      65  49  56 NE5       30.02F
LIVINGSTON     FAIR      64  50  60 E16       30.00F
MILES CITY     FAIR      68  42  38 SE16G28   30.06F
BIG TIMBER     SUNNY     61  50  67 NE9       30.04F
FORSYTH          N/A     66  45  45 MISG      30.03F
HARLOWTON      FAIR      60  51  71 CALM      30.03F
LAUREL           N/A     66  52  59 NE10      30.02F
$$

REGIONAL REPORTS...DAKOTAS

CITY           SKY/WX    TMP DP  RH WIND       PRES   REMARKS
WILLISTON      FAIR      70  32  24 S18G26    30.14F
MINOT          FAIR      74  27  17 S17G23    30.17F
DICKINSON      FAIR      67  33  28 SE20G28   30.15F
BEACH          FAIR      64  32  29 S21G29    30.17F
CROSBY         FAIR      70  28  21 S18G26    30.14F
TIOGA          FAIR      68  30  24 S20G26    30.17F
WATFORD CITY   FAIR      70  30  23 S17G28    30.14F
BISMARCK       FAIR      69  36  29 SE14G21   30.20F
GRAND FORKS    FAIR      73  37  27 S9        30.19F
FARGO          FAIR      70  34  26 VRB3      30.21F
BUFFALO SD       N/A     64  32  30 SE21G29   30.10F
RAPID CITY     FAIR      57  37  47 SE8       30.19F
$$

REGIONAL REPORTS...WYOMING/IDAHO/WASHINGTON

CITY           SKY/WX    TMP DP  RH WIND       PRES   REMARKS
GILLETTE         N/A     62  43  49 SE15G28   30.11F
SHERIDAN       FAIR      70  44  39 SE21G29   30.01F
BUFFALO WY     FAIR      66  42  41 SE24G33   30.07F
CODY           FAIR      66  41  40 SE9       30.05F
YELLOWSTONE LA   N/A     53  35  50 CALM      30.15F
IDAHO FALLS    FAIR      73  44  35 SE9       29.96F
SALMON         PTSUNNY   70  44  39 N6        29.90F
BOISE          CLOUDY    67  57  70 NW7       29.86F
SPOKANE        FAIR      72  45  37 VRB5      29.93F
$$

REGIONAL REPORTS...ALBERTA

CITY           SKY/WX    TMP DP  RH WIND       PRES   REMARKS
CALGARY        MOSUNNY   72  41  33 S6        29.80F
EDMONTON       SUNNY     70  41  35 S16       29.80F
FORT MCMURRAY  SUNNY     77  34  20 S15       29.80F
HIGH LEVEL     MOSUNNY   79  32  18 E6        29.70F
LLOYDMINSTER   MOSUNNY   70  41  35 S21G28    29.89F
MEDICINE HAT   MOSUNNY   75  41  29 SW16G24   29.86F
ONEFOUR          N/A     70  43  37 S14G20      N/A
PEACE RIVER    MOSUNNY   77  41  27 E3        29.72S
WATERTON GATE    N/A     66  37  34 SW18G25     N/A
$$

REGIONAL REPORTS...SASKATCHEWAN

CITY           SKY/WX    TMP DP  RH WIND       PRES   REMARKS
CYPRESS HILLS    N/A     64  39  39 S16G28      N/A
ESTEVAN        SUNNY     72  30  21 S20G28    30.14F
PRINCE ALBERT  SUNNY     73  32  21 S20G28    30.03F
REGINA         SUNNY     72  27  18 S18G33    30.07F
ROCKGLEN         N/A     66  34  30 S26G35      N/A
SASKATOON      MOSUNNY   73  30  20 S20G30    30.00F
SWIFT CURRENT  SUNNY     72  41  33 S25G41    29.95F
VAL MARIE        N/A     72  41  33 S25G33      N/A
$$




USA.gov is the U.S. government's official web portal to all federal, state and local government web resources and services.